Time,TemperatureF,DewpointF,PressureIn,WindDirection,WindDirectionDegrees,WindSpeedMPH,WindSpeedGustMPH,Humidity,HourlyPrecipIn,Conditions,Clouds,dailyrainin,SolarRadiationWatts/m^2,SoftwareType,DateUTC
2013-03-16 00:12:00,67.0,61.0,-100.00,WNW,294,9.0,14.0,80,0.00,,,-99.99,0.000000,,2013-03-16 10:12:00,
2013-03-16 00:22:00,67.0,61.0,-100.00,WNW,294,9.0,14.0,80,0.00,,,-99.99,0.000000,,2013-03-16 10:22:00,
2013-03-16 00:32:00,67.0,61.0,-100.00,WNW,294,9.0,14.0,80,0.00,,,-99.99,0.000000,,2013-03-16 10:32:00,
2013-03-16 00:42:00,67.0,61.0,-100.00,WNW,294,9.0,14.0,80,0.00,,,-99.99,0.000000,,2013-03-16 10:42:00,
2013-03-16 01:12:00,68.0,60.0,-100.00,WNW,286,9.0,15.0,75,0.00,,,-99.99,0.000000,,2013-03-16 11:12:00,
2013-03-16 01:22:00,68.0,60.0,-100.00,WNW,286,9.0,15.0,75,0.00,,,-99.99,0.000000,,2013-03-16 11:22:00,
2013-03-16 01:32:00,68.0,60.0,-100.00,WNW,286,9.0,15.0,75,0.00,,,-99.99,0.000000,,2013-03-16 11:32:00,
2013-03-16 01:42:00,68.0,60.0,-100.00,WNW,286,9.0,15.0,75,0.00,,,-99.99,0.000000,,2013-03-16 11:42:00,
2013-03-16 02:12:00,68.0,57.0,-100.00,WNW,288,9.0,16.0,69,0.00,,,-99.99,0.000000,,2013-03-16 12:12:00,
2013-03-16 02:22:00,68.0,57.0,-100.00,WNW,288,9.0,16.0,69,0.00,,,-99.99,0.000000,,2013-03-16 12:22:00,
2013-03-16 02:32:00,68.0,57.0,-100.00,WNW,288,9.0,16.0,69,0.00,,,-99.99,0.000000,,2013-03-16 12:32:00,
2013-03-16 02:42:00,68.0,57.0,-100.00,WNW,288,9.0,16.0,69,0.00,,,-99.99,0.000000,,2013-03-16 12:42:00,
2013-03-16 03:12:00,68.0,57.0,-100.00,WNW,290,11.0,16.0,68,0.00,,,-99.99,0.000000,,2013-03-16 13:12:00,
2013-03-16 03:22:00,68.0,57.0,-100.00,WNW,290,11.0,16.0,68,0.00,,,-99.99,0.000000,,2013-03-16 13:22:00,
2013-03-16 03:32:00,68.0,57.0,-100.00,WNW,290,11.0,16.0,68,0.00,,,-99.99,0.000000,,2013-03-16 13:32:00,
2013-03-16 03:41:00,68.0,57.0,-100.00,WNW,290,11.0,16.0,68,0.00,,,-99.99,0.000000,,2013-03-16 13:41:00,
2013-03-16 04:12:00,68.0,57.0,-100.00,WNW,293,11.0,17.0,69,0.00,,,-99.99,0.000000,,2013-03-16 14:12:00,
2013-03-16 04:22:00,68.0,57.0,-100.00,WNW,293,11.0,17.0,69,0.00,,,-99.99,0.000000,,2013-03-16 14:22:00,
2013-03-16 04:32:00,68.0,57.0,-100.00,WNW,293,11.0,17.0,69,0.00,,,-99.99,0.000000,,2013-03-16 14:32:00,
2013-03-16 04:42:00,68.0,57.0,-100.00,WNW,293,11.0,17.0,69,0.00,,,-99.99,0.000000,,2013-03-16 14:42:00,
2013-03-16 05:12:00,68.0,55.0,-100.00,WNW,292,12.0,21.0,64,0.00,,,-99.99,0.000000,,2013-03-16 15:12:00,
2013-03-16 05:22:00,68.0,55.0,-100.00,WNW,292,12.0,21.0,64,0.00,,,-99.99,0.000000,,2013-03-16 15:22:00,
2013-03-16 05:33:00,68.0,55.0,-100.00,WNW,292,12.0,21.0,64,0.00,,,-99.99,0.000000,,2013-03-16 15:33:00,
2013-03-16 05:42:00,68.0,55.0,-100.00,WNW,292,12.0,21.0,64,0.00,,,-99.99,0.000000,,2013-03-16 15:42:00,
2013-03-16 06:12:00,67.0,54.0,-100.00,WNW,298,11.0,19.0,62,0.00,,,-99.99,0.000000,,2013-03-16 16:12:00,
2013-03-16 06:22:00,67.0,54.0,-100.00,WNW,298,11.0,19.0,62,0.00,,,-99.99,0.000000,,2013-03-16 16:22:00,
2013-03-16 06:33:00,67.0,54.0,-100.00,WNW,298,11.0,19.0,62,0.00,,,-99.99,0.000000,,2013-03-16 16:33:00,
2013-03-16 06:42:00,67.0,54.0,-100.00,WNW,298,11.0,19.0,62,0.00,,,-99.99,0.000000,,2013-03-16 16:42:00,
2013-03-16 07:12:00,67.0,53.0,-100.00,WNW,292,11.0,19.0,61,0.00,,,-99.99,1.000000,,2013-03-16 17:12:00,
2013-03-16 07:22:00,67.0,53.0,-100.00,WNW,292,11.0,19.0,61,0.00,,,-99.99,1.000000,,2013-03-16 17:22:00,
2013-03-16 07:32:00,67.0,53.0,-100.00,WNW,292,11.0,19.0,61,0.00,,,-99.99,1.000000,,2013-03-16 17:32:00,
2013-03-16 07:42:00,67.0,53.0,-100.00,WNW,292,11.0,19.0,61,0.00,,,-99.99,1.000000,,2013-03-16 17:42:00,
2013-03-16 08:13:00,68.0,52.0,-100.00,WNW,286,10.0,16.0,57,0.00,,,-99.99,56.000000,,2013-03-16 18:13:00,
2013-03-16 08:22:00,68.0,52.0,-100.00,WNW,286,10.0,16.0,57,0.00,,,-99.99,56.000000,,2013-03-16 18:22:00,
2013-03-16 08:32:00,68.0,52.0,-100.00,WNW,286,10.0,16.0,57,0.00,,,-99.99,56.000000,,2013-03-16 18:32:00,
2013-03-16 08:42:00,68.0,52.0,-100.00,WNW,286,10.0,16.0,57,0.00,,,-99.99,56.000000,,2013-03-16 18:42:00,
2013-03-16 09:12:00,71.0,-99.9,-100.00,WNW,290,14.0,-999.0,-999,0.00,,,-99.99,,,2013-03-16 19:12:00,
2013-03-16 09:23:00,71.0,-99.9,-100.00,WNW,290,14.0,-999.0,-999,0.00,,,-99.99,,,2013-03-16 19:23:00,
2013-03-16 09:33:00,71.0,-99.9,-100.00,WNW,290,14.0,-999.0,-999,0.00,,,-99.99,,,2013-03-16 19:33:00,
2013-03-16 09:42:00,71.0,-99.9,-100.00,WNW,290,14.0,-999.0,-999,0.00,,,-99.99,,,2013-03-16 19:42:00,
2013-03-16 11:12:00,74.0,57.0,-100.00,WNW,290,13.0,21.0,55,-99.99,,,-99.99,645.000000,,2013-03-16 21:12:00,
2013-03-16 11:22:00,74.0,57.0,-100.00,WNW,290,13.0,21.0,55,-99.99,,,-99.99,645.000000,,2013-03-16 21:22:00,
2013-03-16 11:32:00,74.0,57.0,-100.00,WNW,290,13.0,21.0,55,-99.99,,,-99.99,645.000000,,2013-03-16 21:32:00,
2013-03-16 11:42:00,74.0,57.0,-100.00,WNW,290,13.0,21.0,55,-99.99,,,-99.99,645.000000,,2013-03-16 21:42:00,
2013-03-16 13:12:00,75.0,58.0,-100.00,NW,318,14.0,22.0,56,-99.99,,,-99.99,819.000000,,2013-03-16 23:12:00,
2013-03-16 13:22:00,75.0,58.0,-100.00,NW,318,14.0,22.0,56,-99.99,,,-99.99,819.000000,,2013-03-16 23:22:00,
2013-03-16 13:32:00,75.0,58.0,-100.00,NW,318,14.0,22.0,56,-99.99,,,-99.99,819.000000,,2013-03-16 23:32:00,
2013-03-16 13:42:00,75.0,58.0,-100.00,NW,318,14.0,22.0,56,-99.99,,,-99.99,819.000000,,2013-03-16 23:42:00,